Retour au catalogue

STARLINK-34731

ActifCommunicationsVLEO
NORAD 65029·PAYLOAD·🇺🇸 United States

Lancé Jul 30, 2025 depuis Cape Canaveral Space Force Station

Loading…

Prochains Passages (prochaines 24 heures)

TLE

FraisSource: CelesTrak SupGP

Époque: Sep 14, 2026, 21:07 UTC

1 65029C 25161Q   26257.88034722 -.00039256  00000+0 -11599-2 0  2573
2 65029  53.1573 131.6856 0001265  81.1911  98.1438 15.34408062    10

Suivez STARLINK-34731 en temps réel avec AllMySat

Download on the App Store